Wind_Speed
23 22 22 22 23 24 26 27 28 27 28 28 27 30 32 35 39 41 43 45 47 49 51 53 55 57 58 59 58 57 57 56 54 53 53 52 51 50 49 48 46 46 45 44
22 22 23 23 22 24 26 27 29 29 29 30 31 31 33 35 38 41 43 44 45 48 50 51 53 55 57 58 58 57 56 56 55 53 53 53 52 51 51 50 48 47 46 45
23 22 23 22 21 23 25 27 29 30 30 32 33 33 33 36 38 39 42 44 46 48 49 51 51 53 55 56 56 57 57 56 56 55 54 52 52 52 51 50 49 48 47 46
24 22 22 20 21 23 24 26 28 29 31 32 33 34 36 36 38 40 41 44 46 48 50 51 51 52 54 56 56 56 57 57 56 55 54 53 53 52 51 50 49 48 46 45
25 24 23 21 21 22 24 24 26 29 31 32 33 35 37 38 39 40 41 43 44 46 49 50 51 51 53 55 55 55 56 56 56 55 55 53 52 52 51 49 48 48 47 45
26 25 24 21 22 23 23 22 24 27 29 31 33 35 36 39 40 40 42 43 44 45 47 50 50 50 51 53 54 55 55 55 56 55 55 54 52 51 50 49 48 47 46 45
25 25 23 21 22 23 23 22 24 26 28 29 32 34 36 38 40 41 42 42 43 44 46 49 50 50 51 51 52 54 54 54 54 55 54 54 53 51 50 49 48 47 46 45
25 25 23 22 22 23 23 24 25 26 27 29 30 34 37 38 39 40 42 43 43 43 45 48 49 50 51 51 52 53 54 54 54 53 53 53 52 51 50 49 48 47 46 44
26 25 24 24 24 24 24 25 25 26 27 28 30 32 36 37 38 39 41 42 43 44 44 47 49 50 50 51 52 53 53 54 54 53 52 52 51 50 50 49 48 46 44 43
26 24 24 24 24 24 25 25 25 26 27 29 30 31 34 37 38 40 42 43 43 43 44 46 48 49 50 51 50 51 52 53 53 53 53 52 51 51 50 49 47 45 44 42
25 23 24 24 24 24 25 24 25 25 27 28 29 32 34 36 38 39 41 42 43 44 44 45 46 48 49 50 50 50 51 52 52 52 52 52 51 51 49 48 47 45 44 42
24 24 24 24 25 25 25 25 25 25 26 28 28 30 33 35 36 38 40 41 42 43 44 44 45 47 48 48 49 49 49 49 50 50 50 50 50 50 49 47 46 44 43 43
25 24 25 24 25 26 26 26 26 26 26 27 27 28 31 33 35 36 38 40 40 42 44 45 44 46 47 47 48 47 47 48 48 48 48 48 48 48 47 46 45 44 43 42
25 25 24 24 25 26 27 26 26 26 27 27 27 28 30 32 34 36 37 39 41 42 44 46 45 45 46 47 48 48 47 47 46 46 47 47 46 46 46 44 43 42 41 40
25 25 25 25 26 26 26 26 26 27 28 28 28 28 30 31 33 35 37 38 40 41 43 45 46 46 46 46 47 48 48 47 46 45 45 46 45 45 44 43 42 41 40 40
24 24 25 25 25 25 26 26 26 27 28 28 29 29 29 31 33 34 36 38 40 40 41 43 45 45 46 45 44 46 46 46 46 45 44 44 44 43 43 42 41 40 40 39
23 23 23 23 24 24 25 26 26 27 27 28 28 28 29 30 31 34 36 37 38 39 41 42 43 43 44 44 43 43 44 45 44 44 43 42 42 41 41 41 40 39 38 37
22 21 21 22 22 23 23 24 25 26 26 26 26 26 27 28 29 31 33 36 37 38 39 41 41 42 43 43 44 43 42 43 44 43 42 41 41 41 40 40 39 38 37 36
22 21 21 21 22 22 22 22 23 24 25 25 24 25 25 26 26 28 30 32 34 36 38 39 40 40 42 43 42 42 42 42 42 42 42 41 40 39 38 38 37 36 36 35
22 22 21 21 21 20 20 19 20 21 23 24 23 23 23 23 24 26 28 30 32 34 36 38 39 40 41 42 42 41 42 42 42 41 40 39 38 37 37 36 36 35 35 34
22 21 21 21 21 20 19 18 18 19 20 22 22 22 22 22 23 24 26 28 30 32 33 36 38 40 40 41 41 41 41 42 41 40 39 38 37 36 35 35 35 34 34 34
21 21 21 21 20 19 18 17 17 16 17 19 20 21 21 22 22 23 24 26 28 29 31 33 36 38 39 40 40 40 41 40 41 40 39 37 36 35 34 34 34 34 33 33
21 21 21 20 19 18 18 17 16 15 16 17 18 19 20 21 22 22 24 26 27 28 30 32 35 37 39 39 38 38 38 38 39 39 38 36 35 34 34 33 33 33 32 32
21 21 20 19 18 17 17 17 16 15 15 16 16 18 19 20 22 22 23 24 25 26 28 31 33 36 37 38 38 38 38 38 38 38 38 37 36 35 33 33 33 32 32 32
20 19 18 18 17 17 17 17 16 15 14 14 14 16 18 19 21 23 24 23 24 26 27 29 32 33 35 36 37 38 38 38 38 38 38 37 36 35 34 33 33 33 32 31
19 19 18 17 16 15 15 15 15 15 14 13 13 14 17 19 21 22 24 23 23 25 26 28 30 31 33 34 35 36 37 39 38 37 36 36 36 36 34 33 33 33 31 30
18 18 17 16 16 15 14 14 13 13 13 14 14 15 17 19 20 21 22 22 23 23 25 27 29 30 31 32 33 35 36 37 37 36 36 35 35 34 34 33 33 32 31 30
Wind_Direction
289 282 275 270 264 257 254 252 248 241 237 228 226 224 223 223 221 218 216 215 215 216 216 217 217 218 218 218 219 220 222 223 223 223 224 225 227 228 229 230 232 234 237 239
289 281 274 270 264 259 256 253 250 244 239 233 227 224 223 222 221 220 218 216 214 215 215 216 217 217 218 218 219 220 222 223 224 225 225 226 227 229 230 231 232 234 237 239
289 283 276 270 265 263 259 255 250 248 243 236 230 228 225 222 221 220 219 218 217 216 215 216 217 217 218 218 218 220 222 223 224 226 226 227 228 230 231 232 234 236 237 239
288 283 280 274 268 263 261 258 253 249 244 238 233 230 228 225 223 222 221 219 218 217 217 216 217 217 218 218 218 219 221 223 225 226 227 228 230 232 233 234 235 236 238 240
287 282 280 276 271 265 263 259 253 250 245 240 237 233 230 228 226 224 222 219 217 217 217 217 217 217 218 218 219 220 221 222 225 226 227 229 231 232 234 235 235 237 238 240
287 283 281 278 272 267 264 260 253 251 246 243 237 233 231 230 228 226 223 219 218 217 217 218 218 218 219 219 220 221 221 223 224 226 228 229 231 233 234 235 236 238 238 240
288 283 281 278 272 268 265 261 254 252 249 243 238 235 232 231 229 227 225 221 220 219 219 219 219 219 219 220 220 221 221 223 225 226 227 229 231 233 234 236 237 237 239 240
287 283 283 278 273 269 266 261 257 253 249 244 240 235 233 231 230 228 225 223 221 221 221 221 221 221 220 220 220 221 222 223 224 226 227 229 230 232 234 235 237 238 239 240
286 283 280 278 274 269 266 263 259 254 249 246 241 235 233 231 229 227 225 224 223 221 220 221 222 222 222 220 222 222 223 224 224 226 227 229 230 231 233 235 237 238 239 242
289 284 279 276 272 269 267 264 259 255 251 246 242 238 234 231 228 225 224 223 223 222 221 221 221 222 223 223 222 222 223 224 225 225 226 228 229 231 233 234 236 237 239 241
289 286 279 275 272 269 266 264 261 257 253 248 245 241 237 233 229 226 224 223 224 223 222 221 221 222 222 223 222 222 223 223 224 224 226 227 228 229 231 233 235 237 239 240
287 283 279 275 271 268 266 263 262 259 253 251 248 243 238 234 231 228 226 224 224 224 223 222 221 221 221 222 222 222 223 223 223 224 224 226 227 228 230 232 234 236 239 241
286 282 279 277 273 270 267 264 261 257 253 251 250 246 240 235 231 230 229 226 226 225 224 223 222 222 221 221 221 222 222 221 221 222 223 224 225 228 230 231 233 236 238 241
285 283 280 278 276 272 270 266 261 256 253 251 248 246 242 237 234 232 231 229 228 228 226 225 223 221 220 220 221 221 221 220 220 222 223 223 225 227 228 230 232 235 238 240
284 282 281 280 278 275 270 265 260 256 254 251 248 246 242 238 235 233 232 231 230 229 227 226 225 223 221 220 221 220 221 221 220 222 223 224 225 227 228 230 232 235 237 239
284 282 282 281 279 275 270 265 261 258 255 253 250 248 244 240 236 234 232 231 230 229 226 224 224 223 222 221 220 220 220 221 220 222 223 224 226 227 229 230 232 234 236 239
284 284 283 282 280 276 272 267 262 258 255 254 252 249 246 241 237 235 232 230 228 227 225 223 223 222 221 221 219 218 218 218 219 221 222 224 226 227 228 230 232 234 236 237
284 283 283 283 283 281 277 271 263 258 256 254 252 249 247 243 238 233 230 227 226 225 223 221 220 220 220 220 218 218 217 217 218 219 220 222 224 225 227 230 232 234 235 237
282 282 282 283 285 284 281 277 268 260 255 252 251 250 246 241 236 232 227 225 224 223 221 219 218 217 217 217 217 218 217 216 218 218 218 220 222 223 226 229 231 233 234 236
282 282 282 283 286 286 284 279 271 262 256 252 251 249 245 239 234 230 227 224 221 218 217 216 216 217 217 217 217 216 216 216 216 216 217 219 220 221 224 226 228 230 232 233
282 281 281 282 282 282 283 279 273 265 257 251 248 245 240 234 231 229 226 222 217 216 215 214 214 215 215 215 215 215 216 217 217 216 217 218 219 219 222 225 226 228 231 233
280 282 283 282 280 278 279 277 272 264 258 252 245 241 235 229 227 225 221 216 213 212 212 212 211 211 211 212 213 213 213 215 216 217 217 218 219 221 223 224 226 228 229 230
280 281 280 280 278 275 276 276 272 264 257 252 245 237 231 227 224 221 215 212 209 208 210 211 211 210 208 208 210 210 211 213 215 215 216 218 220 221 223 224 225 226 227 228
280 279 278 277 275 274 274 272 270 265 257 254 246 235 229 224 219 215 212 210 207 206 206 208 208 209 208 208 209 210 211 213 214 215 216 218 219 220 222 223 224 225 226 227
278 277 276 276 274 272 272 269 266 263 259 254 244 233 224 218 213 210 208 207 207 205 204 206 207 208 208 208 209 210 210 211 212 214 214 215 217 219 221 223 224 224 225 226
276 274 273 274 273 272 269 265 261 259 253 247 242 231 219 212 209 208 207 206 205 203 205 207 207 207 207 208 209 208 209 209 210 211 212 214 216 218 219 221 221 221 222 226
277 274 273 272 271 270 267 263 259 254 248 242 236 225 215 208 206 205 204 202 203 204 206 205 205 205 206 207 207 207 207 208 209 210 211 212 213 214 216 217 217 219 222 225
Height
5462 5460 5459 5459 5459 5459 5459 5459 5461 5464 5467 5471 5474 5478 5482 5486 5492 5498 5505 5513 5520 5528 5537 5546 5556 5565 5575 5585 5594 5603 5611 5620 5628 5636 5643 5649 5655 5661 5667 5672 5677 5682 5687 5691
5457 5455 5454 5453 5453 5453 5453 5454 5455 5457 5461 5464 5467 5471 5475 5480 5485 5491 5498 5505 5513 5520 5529 5538 5547 5556 5566 5575 5585 5594 5602 5611 5619 5626 5632 5639 5645 5651 5657 5663 5668 5673 5678 5682
5452 5450 5448 5448 5449 5447 5447 5448 5449 5451 5455 5457 5461 5465 5469 5473 5478 5484 5491 5498 5505 5513 5521 5529 5538 5547 5556 5565 5575 5584 5592 5601 5608 5616 5623 5630 5636 5642 5648 5654 5659 5664 5669 5673
5445 5445 5443 5446 5443 5442 5441 5442 5443 5444 5447 5450 5454 5458 5462 5467 5472 5478 5484 5490 5498 5505 5513 5521 5530 5538 5547 5556 5564 5573 5582 5590 5598 5606 5614 5620 5627 5633 5639 5644 5650 5655 5659 5664
5439 5437 5437 5439 5437 5436 5436 5437 5437 5438 5441 5444 5447 5451 5456 5460 5465 5471 5477 5483 5490 5497 5505 5513 5521 5529 5538 5546 5555 5563 5572 5580 5589 5596 5604 5610 5617 5624 5630 5635 5640 5645 5650 5655
5433 5431 5431 5434 5431 5429 5431 5431 5432 5432 5434 5437 5440 5444 5450 5454 5458 5464 5470 5476 5483 5490 5497 5505 5512 5521 5529 5537 5546 5554 5562 5570 5578 5586 5594 5601 5608 5614 5620 5626 5631 5636 5641 5645
5427 5424 5425 5427 5425 5424 5426 5426 5426 5426 5427 5430 5433 5437 5442 5446 5451 5456 5463 5469 5475 5482 5489 5496 5504 5512 5520 5528 5536 5544 5552 5560 5568 5576 5583 5591 5598 5604 5610 5616 5621 5626 5631 5636
5421 5419 5422 5420 5418 5418 5418 5418 5418 5419 5421 5423 5426 5429 5433 5438 5443 5449 5455 5461 5467 5474 5481 5488 5495 5503 5512 5519 5527 5535 5542 5550 5558 5566 5573 5580 5588 5594 5600 5606 5611 5617 5622 5626
5415 5416 5414 5412 5411 5411 5411 5411 5411 5412 5414 5416 5419 5422 5426 5431 5436 5441 5447 5453 5459 5466 5472 5479 5486 5494 5502 5510 5517 5525 5532 5540 5548 5555 5563 5570 5577 5584 5590 5596 5602 5607 5612 5617
5407 5408 5406 5405 5404 5404 5403 5404 5404 5405 5406 5408 5411 5414 5418 5422 5427 5433 5438 5444 5450 5457 5464 5470 5477 5485 5492 5500 5507 5515 5522 5530 5537 5545 5553 5560 5567 5574 5581 5587 5593 5598 5603 5608
5400 5400 5399 5398 5397 5397 5397 5397 5397 5398 5399 5401 5403 5406 5410 5414 5419 5424 5429 5435 5441 5448 5455 5461 5468 5475 5483 5490 5498 5505 5513 5520 5527 5535 5543 5550 5557 5564 5571 5578 5583 5589 5594 5599
5394 5393 5391 5391 5390 5389 5389 5389 5390 5390 5392 5393 5395 5398 5401 5405 5410 5415 5421 5426 5432 5439 5446 5452 5459 5466 5473 5480 5488 5495 5503 5511 5518 5525 5533 5540 5547 5554 5561 5568 5574 5579 5585 5590
5386 5385 5383 5383 5382 5381 5381 5381 5382 5383 5384 5386 5388 5390 5392 5396 5401 5406 5411 5417 5423 5429 5436 5443 5450 5457 5464 5471 5478 5486 5494 5501 5509 5516 5524 5531 5538 5545 5552 5558 5564 5570 5575 5580
5378 5377 5376 5375 5374 5373 5373 5373 5373 5375 5376 5378 5380 5382 5384 5388 5392 5397 5402 5407 5413 5419 5426 5433 5440 5448 5455 5462 5469 5477 5484 5492 5500 5507 5515 5522 5529 5536 5542 5549 5555 5561 5566 5571
5370 5369 5368 5367 5366 5365 5364 5364 5365 5367 5368 5369 5371 5373 5376 5379 5383 5387 5392 5397 5403 5409 5416 5423 5430 5438 5445 5452 5460 5467 5475 5483 5491 5499 5506 5513 5520 5526 5533 5540 5546 5552 5557 5562
5363 5361 5360 5359 5358 5357 5356 5356 5357 5358 5359 5361 5362 5364 5367 5370 5373 5378 5382 5387 5393 5399 5406 5412 5420 5428 5435 5443 5451 5458 5466 5474 5482 5490 5497 5504 5511 5518 5524 5531 5537 5543 5548 5553
5355 5354 5352 5351 5350 5349 5348 5348 5348 5350 5351 5352 5354 5356 5358 5361 5364 5368 5372 5377 5383 5389 5396 5403 5410 5418 5426 5434 5442 5450 5457 5465 5473 5481 5488 5495 5502 5509 5516 5522 5528 5534 5539 5544
5348 5347 5345 5344 5343 5342 5341 5340 5340 5341 5342 5344 5345 5347 5349 5352 5355 5359 5363 5367 5373 5379 5386 5393 5401 5408 5416 5425 5433 5441 5448 5456 5464 5472 5480 5487 5493 5500 5507 5513 5519 5525 5530 5535
5340 5339 5338 5337 5335 5334 5333 5332 5332 5332 5333 5335 5337 5339 5341 5343 5346 5350 5354 5358 5364 5370 5377 5383 5391 5399 5407 5416 5423 5432 5440 5448 5456 5463 5471 5478 5485 5491 5498 5505 5511 5516 5522 5526
5333 5332 5331 5329 5328 5327 5325 5324 5324 5324 5325 5327 5329 5331 5333 5336 5338 5342 5346 5351 5356 5361 5368 5374 5382 5390 5398 5407 5414 5423 5431 5439 5447 5455 5462 5469 5476 5483 5490 5496 5502 5508 5513 5518
5326 5325 5324 5323 5321 5320 5319 5318 5317 5317 5318 5319 5321 5323 5326 5329 5332 5335 5339 5344 5349 5354 5360 5367 5374 5382 5390 5398 5406 5414 5423 5431 5439 5447 5455 5462 5468 5475 5482 5488 5493 5499 5505 5510
5319 5318 5317 5316 5314 5313 5312 5311 5311 5311 5311 5312 5314 5316 5319 5322 5325 5329 5333 5337 5342 5347 5353 5360 5367 5374 5382 5390 5399 5407 5415 5423 5432 5439 5447 5454 5461 5467 5474 5480 5485 5491 5497 5502
5313 5311 5310 5309 5308 5307 5306 5305 5305 5305 5306 5307 5308 5310 5313 5316 5319 5323 5327 5332 5336 5342 5347 5354 5360 5367 5375 5383 5391 5399 5407 5416 5424 5432 5439 5446 5453 5459 5466 5472 5478 5483 5489 5494
5306 5305 5303 5302 5302 5301 5300 5300 5300 5300 5301 5302 5303 5304 5307 5310 5314 5317 5322 5326 5331 5337 5342 5348 5354 5361 5369 5377 5385 5392 5400 5408 5416 5423 5431 5438 5445 5451 5458 5464 5470 5475 5481 5486
5299 5298 5297 5296 5296 5295 5295 5295 5295 5295 5296 5297 5298 5299 5302 5305 5309 5313 5318 5322 5327 5332 5338 5344 5350 5356 5363 5370 5378 5386 5393 5401 5408 5416 5423 5430 5437 5443 5450 5456 5462 5468 5473 5479
5293 5292 5292 5291 5290 5290 5289 5289 5290 5290 5291 5292 5294 5295 5298 5301 5305 5309 5314 5319 5323 5328 5334 5339 5345 5351 5358 5364 5371 5379 5386 5394 5401 5409 5416 5422 5429 5436 5442 5448 5454 5460 5466 5471
5287 5286 5286 5285 5285 5285 5285 5285 5285 5286 5287 5289 5290 5292 5295 5298 5302 5306 5311 5315 5320 5325 5330 5336 5341 5347 5353 5359 5366 5373 5380 5387 5394 5402 5409 5415 5421 5428 5434 5441 5447 5453 5458 5463